Regional Weather Roundup
Issued by NWS Northern Indiana

Home | Current Version | Previous Version | Text Only | Print | Product List | Glossary Off
Versions: 1 2 3 4 5 6 7 8 9 10 11 12 13 14 15 16 17 18 19 20 21 22 23 24 25 26 27 28 29 30 31 32 33 34 35 36 37 38 39 40 41 42 43 44 45 46 47 48 49 50

000
ASUS43 KIWX 270010
RWRIWX

KIWX WEATHER ROUNDUP
NATIONAL WEATHER SERVICE NORTHERN INDIANA
800 PM EDT THU MAR 26 2015

NOTE: "FAIR" INDICATES FEW OR NO CLOUDS BELOW 12,000 FEET WITH NO
SIGNIFICANT WEATHER AND/OR OBSTRUCTIONS TO VISIBILITY.

* THESE STATIONS ARE NOT UNDER NWS QUALITY CONTROL. THEY ALSO MAY NOT
  REPORT WEATHER SUCH AS PRECIPITATION OR FOG.

INZ001>027-270100-
NORTHERN INDIANA

CITY           SKY/WX    TMP DP  RH WIND       PRES   REMARKS
GARY*          MOCLDY    37  23  56 NE5       30.01S
VALPARAISO     CLOUDY    35  23  61 N8        29.99S WCI  29
6HR MIN TEMP:  35; 6HR MAX TEMP:  44;

MICHIGAN CITY* CLOUDY    34  23  64 N9        30.00S WCI  26
LAPORTE*       CLOUDY    37  26  64 N13       29.99S
6HR MIN TEMP:  37; 6HR MAX TEMP:  43;

KNOX*            N/A     36   9  32 N13       29.98R
SOUTH BEND     CLOUDY    36  24  62 N15       29.99R
6HR MIN TEMP:  36; 6HR MAX TEMP:  42;

ELKHART*       CLOUDY    36  19  51 NW10G16   29.98R
GOSHEN         CLOUDY    37  23  56 N15       29.96R
6HR MIN TEMP:  37; 6HR MAX TEMP:  44;

MONTICELLO*    PTCLDY    39  28  65 NW9       29.96R
6HR MIN TEMP:  39; 6HR MAX TEMP:  46;

LOGANSPORT*    CLOUDY    39  30  70 N7        29.97R
ROCHESTER*     CLOUDY    39  27  60 NW12      29.97R
WARSAW*        MOCLDY    36  23  60 N10       29.96R
ANGOLA*        CLOUDY    36  21  55 NW9       29.94R
FORT WAYNE     PTCLDY    37  25  61 NW10      29.95R
6HR MIN TEMP:  37; 6HR MAX TEMP:  45;

HUNTINGTON*    CLOUDY    37  21  53 N6        29.95R
6HR MIN TEMP:  37; 6HR MAX TEMP:  43;

PERU/GRISSOM   MOCLDY    40  28  61 N7        29.94R
6HR MIN TEMP:  40; 6HR MAX TEMP:  44;

MARION*        MOCLDY    39  28  63 N7        29.96R
6HR MIN TEMP:  -9; 6HR MAX TEMP:  69;


$$
INZ028>050-270100-
CENTRAL INDIANA

CITY           SKY/WX    TMP DP  RH WIND       PRES   REMARKS
LAFAYETTE      MOCLDY    42  28  57 NW12      29.98R
6HR MIN TEMP:  41; 6HR MAX TEMP:  46;

KOKOMO*          N/A     39  30  70 N6        29.96R
6HR MIN TEMP:  39; 6HR MAX TEMP:  45;

MUNCIE*        CLOUDY    41  32  70 NW9       29.94R
6HR MIN TEMP:  39; 6HR MAX TEMP:  43;

INDIANAPOLIS   MOCLDY    42  30  62 NW14      29.96R
6HR MIN TEMP:  41; 6HR MAX TEMP:  44;


$$
MIZ043>046-050>051-056>058-064>065-071>073-077>080-270100-
SOUTHWEST LOWER MICHIGAN

CITY           SKY/WX    TMP DP  RH WIND       PRES   REMARKS
BATTLE CREEK   CLOUDY    35  23  61 NW15      29.95R WCI  25
6HR MIN TEMP:  35; 6HR MAX TEMP:  41;

BENTON HARBOR  CLOUDY    33  26  75 NW6       30.00R WCI  28
6HR MIN TEMP:  33; 6HR MAX TEMP:  39;

COLDWATER*     CLOUDY    35  21  56 NW6       29.94R WCI  30
6HR MIN TEMP:  35; 6HR MAX TEMP:  44;

HILLSDALE*     CLOUDY    36  20  53 W16       29.91S
6HR MIN TEMP:  36; 6HR MAX TEMP:  45;

HOLLAND        CLOUDY    33  26  75 NW9       29.99S WCI  25
6HR MIN TEMP:  33; 6HR MAX TEMP:  39;

GRAND RAPIDS   CLOUDY    34  24  67 NW14      29.96R WCI  25
6HR MIN TEMP:  34; 6HR MAX TEMP:  39; 6HR PCP: TRACE;

KALAMAZOO      CLOUDY    35  23  61 NW13      29.96R WCI  26
6HR MIN TEMP:  35; 6HR MAX TEMP:  41;

STURGIS*       CLOUDY    36  21  55 NW7G17    29.95R
THREE RIVERS*  CLOUDY    35  24  64 NW10G22   29.96R WCI  27
6HR MIN TEMP:  35; 6HR MAX TEMP:  42;


$$
OHZ001>008-015>018-024>025-270100-
NORTHWEST OHIO

CITY           SKY/WX    TMP DP  RH WIND       PRES   REMARKS
WAUSEON*       CLOUDY    37  28  70 NW17      29.92R
DEFIANCE       CLOUDY    38  25  59 NW15      29.94R
6HR MIN TEMP:  38; 6HR MAX TEMP:  45;

FINDLAY        CLOUDY    42  29  59 NW10      29.90R
6HR MIN TEMP:  40; 6HR MAX TEMP:  44;

TOLEDO EXPRESS CLOUDY    39  25  57 NW12G20   29.91R
6HR MIN TEMP:  39; 6HR MAX TEMP:  44;

TOLEDO METCALF CLOUDY    41  25  53 NW15      29.91R
6HR MIN TEMP:  40; 6HR MAX TEMP:  44;

LIMA           CLOUDY    42  31  64 NW15G23   29.91R
6HR MIN TEMP:  39; 6HR MAX TEMP:  43;


$$
AND FOR LAKE MICHIGAN COASTAL AND OPEN LAKE BUOY OBSERVATIONS

STATION/POSITION TEMP    WIND        PRES    VSBY  WAVE
                 AIR SEA DIR/SP/G                  HT/PER
                 (F)     (DEG/KT/KT) (MB)    (MI)  (FT/S)
CALUMET HARBOR    36      30/  7/  8 1014.8S
MICHIGAN CITY     34     340/ 10/ 14   N/A
BURNS HARBOR      35      30/  7/  8 1016.3S
SAINT JOSEPH      34     330/  7/ 10 1016.3F

$$
&&



USA.gov is the U.S. government's official web portal to all federal, state and local government web resources and services.